Skip Page Navigation
NASA JPL Caltech
NASA Logo - Jet Propulsion Laboratory + View the NASA Portal
+ Center for Near-Earth Object Studies
JPL Home Earth Solar System Stars & Galaxies Technology
JPL Solar System Dynamics
BODIES ORBITS EPHEMERIDES TOOLS PHYSICAL DATA DISCOVERY FAQ SITE MAP
IMPORTANT: The SSD Announcement email list is now available. Major changes are coming in the near future, including possible hostname and/or URL changes. To be notified of such changes, subscribe to this email list.

Please visit this page for more details.


JPL Small-Body Database Browser
Search: [ help ]  
11032 (1988 RE5)
Classification: Main-belt Asteroid          SPK-ID: 2011032
Ephemeris | Orbit Diagram | Orbital Elements | Mission Design | Physical Parameters | Discovery Circumstances | Close-Approach Data ]

[ show orbit diagram ]
Orbital Elements at Epoch 2458600.5 (2019-Apr-27.0) TDB
Reference: JPL 27 (heliocentric ecliptic J2000)
 Element Value Uncertainty (1-sigma)   Units 
e .190442966244338 3.2134e-08  
a 2.402178465049899 7.729e-09 au
q 1.944700472717526 7.6985e-08 au
i 3.419759231780168 3.6419e-06 deg
node 121.3905808849474 5.8332e-05 deg
peri 179.2834493168523 5.91e-05 deg
M 106.7283426980903 9.3349e-06 deg
tp 2458197.334282322900
(2018-Mar-19.83428232)
3.4718e-05 TDB
period 1359.89798674493
3.72
6.5632e-06
1.797e-08
d
yr
n .2647257393635097 1.2776e-09 deg/d
Q 2.859656457382273 9.201e-09 au
  Orbit Determination Parameters
   # obs. used (total)      1619  
   data-arc span      11394 days (31.20 yr)  
   first obs. used      1988-08-16  
   last obs. used      2019-10-27  
   planetary ephem.      DE431  
   SB-pert. ephem.      SB431-N16  
   condition code      0  
   norm. resid. RMS      .52764  
   source      ORB  
   producer      Otto Matic  
   solution date      2019-Nov-07 03:28:50  

Additional Information
 Earth MOID = .928386 au 
 Jupiter MOID = 2.36147 au 
 T_jup = 3.498 
[ show covariance matrix ]

Ephemeris | Orbit Diagram | Orbital Elements | Mission Design | Physical Parameters | Discovery Circumstances | Close-Approach Data ]

Physical Parameter Table
Parameter Symbol Value Units Sigma Reference Notes
absolute magnitude H 14.5   n/a MPO309238  
diameter diameter 3.475 km 0.187 urn:nasa:pds:neowise_diameters_albedos::2.0[mainbelt] (http://adsabs.harvard.edu/abs/2011ApJ...741...68M)  
geometric albedo albedo 0.279   0.056 urn:nasa:pds:neowise_diameters_albedos::2.0[mainbelt] (http://adsabs.harvard.edu/abs/2011ApJ...741...68M)  

11032 (1988 RE5)          Discovered 1988-Sep-02 by Debehogne, H. at La Silla
Reference: 19990728/Numbers.arcLast Updated: 2004-04-19

[ show close-approach data ]
Alternate Designations
 1988 RE5 = 1996 XU7 
Ephemeris | Orbit Diagram | Orbital Elements | Mission Design | Physical Parameters | Discovery Circumstances | Close-Approach Data ]
ABOUT SSD CREDITS/AWARDS PRIVACY/COPYRIGHT GLOSSARY LINKS
FirstGov 2019-Dec-12 19:06 UT
(server date/time)  
NASA Home Page
Site Manager:   Ryan S. Park
Webmaster  Alan B. Chamberlin